Weather History for KFTK - November, 2012

Change the Weather History Date:

Wednesday, November 28, 2012

  Actual Average Record
Temperature  
Mean Temperature 34 °F -  
Max Temperature 45 °F 50 °F 69 °F (1998)
Min Temperature 22 °F 32 °F 14 °F (2013)
Degree Days  
Heating Degree Days 32    
Moisture  
Dew Point 24 °F    
Average Humidity 74    
Maximum Humidity 96    
Minimum Humidity 41    
Precipitation  
Precipitation 0.00 in - - ()
Sea Level Pressure  
Sea Level Pressure 30.41 in    
Wind  
Wind Speed 1 mph (SW)    
Max Wind Speed 7 mph    
Max Gust Speed -    
Visibility 8 miles    
Events      
Averages and records for this station are not official NWS values.
T = Trace of Precipitation, MM = Missing Value Source: NWS Daily Summary

Daily Weather History Graph

Daily Weather History Graph

Search for Another Location

Airport or City:

Trip Planner

Search our weather history database for the weather conditions in past years. The results will help you decide how hot, cold, wet, or windy it might be!

Date:

Astronomy

Nov. 28, 2012 Rise Set
Actual Time 7:38 AM EST 5:25 PM EST
Civil Twilight 7:09 AM EST 5:54 PM EST
Nautical Twilight 6:37 AM EST 6:26 PM EST
Astronomical Twilight 6:05 AM EST 6:58 PM EST
Moon 5:40 PM EST (11/28) 7:35 AM EST (11/28)
Length of Visible Light 10h 44m
Length of Day
9h 47m
Full, 100% of the Moon is Illuminated
Nov 28
Full
Dec 6
Last Quarter
Dec 13
New
Dec 20
First Quarter
Dec 28
Full

Hourly Weather History & Observations

Time (EST) Temp. Windchill Dew Point Humidity Pressure Visibility Wind Dir Wind Speed Gust Speed Precip Events Conditions
12:55 AM 26.2 °F 22.1 °F 24.8 °F 94% 30.34 in 5.0 mi SSW 3.5 mph - N/A   Clear
1:55 AM 26.8 °F - 25.5 °F 95% 30.35 in 4.0 mi Calm Calm - N/A   Clear
2:55 AM 25.2 °F - 23.7 °F 94% 30.36 in 5.0 mi Calm Calm - N/A   Clear
3:55 AM 23.9 °F - 22.1 °F 93% 30.38 in 4.0 mi Calm Calm - N/A   Clear
4:55 AM 22.5 °F - 20.7 °F 93% 30.38 in 6.0 mi Calm Calm - N/A   Clear
5:55 AM 24.3 °F - 22.8 °F 94% 30.40 in 6.0 mi Calm Calm - N/A   Clear
6:55 AM 23.0 °F - 21.4 °F 94% 30.41 in 5.0 mi Calm Calm - N/A   Clear
7:55 AM 22.8 °F - 21.0 °F 93% 30.43 in 5.0 mi Calm Calm - N/A   Clear
8:55 AM 27.3 °F - 26.2 °F 96% 30.44 in 7.0 mi Calm Calm - N/A   Clear
9:55 AM 31.8 °F 27.3 °F 27.7 °F 85% 30.45 in 10.0 mi South 4.6 mph - N/A   Clear
10:55 AM 37.8 °F - 28.6 °F 69% 30.47 in 10.0 mi Calm Calm - 0.00 in   Clear
11:55 AM 41.4 °F 36.8 °F 26.6 °F 56% 30.46 in 10.0 mi West 6.9 mph - N/A   Clear
12:55 PM 43.2 °F - 24.8 °F 48% 30.44 in 10.0 mi Calm Calm - N/A   Clear
1:55 PM 45.1 °F 42.8 °F 23.4 °F 42% 30.42 in 10.0 mi Variable 4.6 mph - N/A   Clear
2:55 PM 45.1 °F - 23.2 °F 42% 30.40 in 10.0 mi SSW 2.3 mph - N/A   Clear
3:55 PM 45.1 °F 41.4 °F 22.8 °F 41% 30.40 in 10.0 mi West 6.9 mph - N/A   Clear
4:55 PM 42.1 °F 40.2 °F 24.4 °F 50% 30.41 in 10.0 mi West 3.5 mph - N/A   Clear
5:55 PM 38.1 °F - 24.4 °F 58% 30.41 in 10.0 mi Calm Calm - N/A   Clear
6:55 PM 34.5 °F - 23.7 °F 65% 30.42 in 10.0 mi Calm Calm - N/A   Clear
7:55 PM 32.7 °F - 23.2 °F 68% 30.42 in 10.0 mi Calm Calm - N/A   Clear
8:55 PM 31.8 °F - 24.1 °F 73% 30.42 in 10.0 mi Calm Calm - N/A   Clear
9:55 PM 29.7 °F - 23.7 °F 79% 30.42 in 10.0 mi Calm Calm - N/A   Clear
10:55 PM 28.8 °F - 23.7 °F 81% 30.41 in 10.0 mi Calm Calm - N/A   Clear
11:55 PM 27.9 °F - 23.7 °F 84% 30.40 in 10.0 mi Calm Calm - N/A   Clear